Regional Weather Roundup
Issued by NWS

Home | Current Version | Previous Version | Text Only | Print | Product List | Glossary Off
Versions: 1 2 3 4 5 6 7 8 9 10 11 12 13 14 15 16 17 18 19 20 21 22 23 24 25 26 27 28 29 30 31 32 33 34 35 36 37 38 39 40 41 42 43 44 45 46 47 48 49 50

000
ASUS43 KLOT 270306
RWRIL

ILLINOIS REGIONAL WEATHER ROUNDUP
NATIONAL WEATHER SERVICE CHICAGO/ROMEOVILLE IL
900 PM CST FRI DEC 26 2014

NOTE: "FAIR" INDICATES FEW OR NO CLOUDS BELOW 12,000 FEET WITH NO
SIGNIFICANT WEATHER AND/OR OBSTRUCTIONS TO VISIBILITY.

* THESE STATIONS ARE NOT UNDER NWS QUALITY CONTROL. THEY ALSO MAY NOT
  REPORT WEATHER SUCH AS PRECIPITATION OR FOG.

ILZ001-002-007-009-015-016-024-270400-
NORTHWEST ILLINOIS

CITY           SKY/WX    TMP DP  RH WIND       PRES   REMARKS
MOLINE         CLOUDY    45  39  79 E6        29.96F
STERLING*      CLOUDY    45  37  76 CALM      30.00S
SAVANNA*       CLOUDY    41  36  81 N3        29.99S
$$

ILZ003-004-008-010-011-017-018-270400-
NORTH CENTRAL ILLINOIS

CITY           SKY/WX    TMP DP  RH WIND       PRES   REMARKS
ROCKFORD       CLOUDY    42  37  82 S3        30.02S
FREEPORT*      CLOUDY    40  37  89 CALM      30.01S
ROCHELLE*      CLOUDY    41  40  94 S7        30.01S
DE KALB*       CLOUDY    41  39  92 S7        30.01S
PERU*          CLOUDY    47  42  84 S10       30.01R
$$

ILZ005-006-012>014-019>023-270400-
NORTHEAST ILLINOIS

CITY           SKY/WX    TMP DP  RH WIND       PRES   REMARKS
CHICAGO-OHARE  CLOUDY    47  41  80 S7        30.03R
CHICAGO-MIDWAY CLOUDY    50  42  74 S8        30.04R
AURORA         CLOUDY    46  40  79 S10       30.02S
LANSING*       CLOUDY    47  43  84 S9        30.05S
JOLIET*        MOCLDY    46  42  85 S5        30.03F
WAUKEGAN       CLOUDY    44  38  79 S6        30.02R
DUPAGE AIRPORT CLOUDY    46  41  82 S10       30.01S
KANKAKEE*      PTCLDY    44  41  91 S6        30.06R
WHEELING       CLOUDY    44  39  82 S6        30.04S
MORRIS*        PTCLDY    41  40  97 SE8       30.01F
ROMEOVILLE*    CLOUDY    46  42  89 S7        30.04S
NORTHERLY ISL    N/A     49  40  71 SW8         N/A
$$

LMZ740>746-270400-
SOUTHERN LAKE MICHIGAN

STATION/POSITION SKY/WX   TEMP    WIND        PRES    VSBY  WAVE
                          AIR SEA DIR/SP/G                  HT/PER
                          (F)     (DEG/KT/KT) (MB)    (MI)  (FT/S)
WAUKEGAN HARBOR            40     190/  8/  8   N/A
HARRISON CRIB              49     200/ 15/ 19   N/A
BURNHAM HARBOR             49     190/ 10/ 11   N/A
CALUMET HARBOR             48     180/  7/ 12 1016.0R
MICHIGAN CITY              48     180/  9/ 11   N/A
$$

ILZ025>027-034>036-040-047-049-050-058-095>099-270400-
WEST-CENTRAL ILLINOIS

CITY           SKY/WX    TMP DP  RH WIND       PRES   REMARKS
QUINCY         CLOUDY    52  44  74 S13       29.96S
GALESBURG*     CLOUDY    47  42  83 SE3       29.97S
MACOMB*        MOCLDY    45  42  87 SE8       29.98F
JACKSONVILLE*  CLOUDY    52  45  76 S13       30.01R
PITTSFIELD*    CLOUDY    54  46  73 S13G20    29.99S
$$

ILZ028>032-037-038-041>044-048-051>054-059>061-270400-
CENTRAL ILLINOIS

CITY           SKY/WX    TMP DP  RH WIND       PRES   REMARKS
PONTIAC        CLOUDY    44  43  95 SE7       30.03F
BLOOMINGTON    CLOUDY    46  44  93 S13       30.04R
DECATUR        CLOUDY    49  43  80 S15       30.06R
PEORIA         CLEAR     48  42  80 S10       30.00S
LACON*         CLOUDY    47  42  82 S7        30.00S
LINCOLN*       PTCLDY    48  43  84 S14       30.02F
SPRINGFIELD    PTCLDY    49  42  77 S18       30.03S
TAYLORVILLE    CLOUDY    46  43  87 S14G22    30.05S
$$

ILZ033-039-045-046-055>057-062-063-270400-
EAST-CENTRAL ILLINOIS

CITY           SKY/WX    TMP DP  RH WIND       PRES   REMARKS
CHAMPAIGN      MOCLDY    46  42  86 S14       30.07R
DANVILLE*      MOCLDY    46  42  85 SW10      30.06R
RANTOUL*       PTCLDY    43  42  94 S8        30.07R
MATTOON        CLOUDY    49  43  80 S10       30.07S
PARIS*         CLOUDY    49  44  85 S12       30.10S
$$

ILZ079-100>102-270400-
SOUTHWEST ILLINOIS

CITY           SKY/WX    TMP DP  RH WIND       PRES   REMARKS
ALTON          CLOUDY    50  41  71 S16       30.05
BELLEVILLE     CLOUDY    50  44  80 S10       30.06S
CAHOKIA*       CLOUDY    51  42  71 S8        30.05S
SPARTA*        MOCLDY    49  40  71 S10       30.10R
$$

ILZ064>066-069>071-074>076-080>082-084>086-088>090-092>094-270400-
SOUTH-CENTRAL ILLINOIS

CITY           SKY/WX    TMP DP  RH WIND       PRES   REMARKS
CARBONDALE     CLOUDY    51  39  63 S12G22    30.12S
CAIRO*         CLOUDY    50  41  69 SE6       30.15F
EFFINGHAM*     CLOUDY    50  40  69 SE6       30.11R
MARION         CLOUDY    52  41  66 S12       30.14R
MT. VERNON     CLOUDY    50  39  66 S8        30.12R
CENTRALIA*     CLOUDY    49  40  71 S15       30.09S
SALEM*         MOCLDY    51  43  74 S10       30.10R
METROPOLIS*    CLOUDY    48  39  70 SE5       30.16S
$$

ILZ067-068-072-073-078-083-087-091-270400-
SOUTHEAST ILLINOIS

CITY           SKY/WX    TMP DP  RH WIND       PRES   REMARKS
LAWRENCEVILLE  CLOUDY    48  42  80 S10       30.13R
FLORA*         PTCLDY    47  42  81 S9        30.11S
FAIRFIELD*     CLOUDY    48  42  80 S8        30.11S
HARRISBURG*    CLOUDY    50  40  69 S8        30.15R
ROBINSON*      CLOUDY    47  42  81 S8        30.14R
CARMI*         MOCLDY    48  43  82 S8        30.13F
$$

ABBREVIATIONS USED IN REMARKS
   TC - TEMPERATURE IN CELSIUS
  WCI - WIND CHILL INDEX
   HX - HEAT INDEX
  VSB - VISIBILITY
$$




USA.gov is the U.S. government's official web portal to all federal, state and local government web resources and services.